Location: Clairmont
(55.2667°N, 118.8000°W)
Time: 15:15:25
(UTC+00:00)

Envisat - Pass Details

Date: 31 October 2020
Orbit: 764 x 766 km, 98.1° (Epoch: 03 December)

Event Time Altitude Azimuth Distance (km) Brightness Sun altitude
Rises 12:48:57 0° 23° (NNE) 3,247 6.6 -18.8°
Reaches altitude 10° 12:51:48 10° 39° (NE) 2,315 6.0 -18.4°
Maximum altitude 12:55:41 22° 88° (E) 1,651 5.7 -17.9°
Drops below altitude 10° 12:59:33 10° 138° (SE) 2,301 6.0 -17.3°
Sets 13:02:22 0° 154° (SSE) 3,222 6.6 -16.9°
